Regional Weather Roundup
Issued by NWS Albany, NY

Home | Current Version | Previous Version | Graphics & Text | Print | Product List | Glossary Off
Versions: 1 2 3 4 5 6 7 8 9 10 11 12 13 14 15 16 17 18 19 20 21 22 23 24 25 26 27 28 29 30 31 32 33 34 35 36 37 38 39 40 41 42 43 44 45 46 47 48 49 50

825
ASUS41 KALY 251110
RWRALY

NEW YORK STATE HOURLY WEATHER ROUNDUP
NATIONAL WEATHER SERVICE ALBANY NY
700 AM EDT FRI MAY 25 2018

NOTE: "FAIR" INDICATES FEW OR NO CLOUDS BELOW 12,000 FEET WITH NO
SIGNIFICANT WEATHER AND/OR NO OBSTRUCTIONS TO VISIBILITY.

NYZ032-033-038>043-046>054-057>066-NYZ062>081-082-084-251200-
EAST


CITY           SKY/WX    TMP DP  RH WIND       PRES   REMARKS
ALBANY         FAIR      59  50  72 S5        30.00S
GLENS FALLS    FAIR      56  50  80 CALM      29.97S
POUGHKEEPSIE   FAIR      60  53  77 CALM      30.02S
NEWBURGH       SUNNY     59  54  82 W5        30.05S
MONTGOMERY     FAIR      58  54  86 SW5       30.03S
WHITE PLAINS   FAIR      64  51  62 W6        30.04S
ISLIP          FAIR      63  55  75 SW5       30.05S
NEW YORK CITY  FAIR      70  51  51 SW7       30.04F
CENTRAL PARK   FAIR      66  52  60 VRB3      30.08S
$$

NYZ005>009-017-018-044>046-055-056-251200-
CENTRAL


CITY           SKY/WX    TMP DP  RH WIND       PRES   REMARKS
FULTON         FAIR      61  48  62 SW6       29.99S
SYRACUSE       FAIR      59  52  77 CALM      29.99S
ROME           FAIR      51  49  92 E3        30.03S
ELMIRA         FAIR      52  50  93 CALM      30.07R
BINGHAMTON     FAIR      58  48  69 SW7       30.05S
$$

NYZ026>034-041>043-087-251200-
NORTH


CITY           SKY/WX    TMP DP  RH WIND       PRES   REMARKS
WATERTOWN      FAIR      59  45  59 SW6       29.96S
FORT DRUM      NOT AVBL
OGDENSBURG     FAIR      61  50  66 SW8       29.90F
MASSENA        FAIR      64  51  62 SW15      29.88F
SARANAC LAKE   FAIR      58  47  66 SW9       29.94F
PLATTSBURGH    FAIR      67  47  48 MISG      29.85F
$$

NYZ001>004-010>016-019>021-085-251200-
WEST


CITY           SKY/WX    TMP DP  RH WIND       PRES   REMARKS
NIAGARA FALLS  FAIR      58  46  64 SW9       30.00S
BUFFALO        FAIR      54  49  83 SW6       30.01F
DUNKIRK        FAIR      62  46  55 S7        30.03F
JAMESTOWN      FAIR      55  44  66 S5        30.08
WELLSVILLE     FAIR      61  44  53 SW5       30.10F
ROCHESTER      PTSUNNY   60  49  66 SW8       30.01S
PENN YAN       FAIR      58  48  69 SW10      30.03F
$$

             KEY
       WCI = WIND CHILL INDEX
       VSB = VISIBILITY
       HX  = HEAT INDEX
$$




USA.gov is the U.S. government's official web portal to all federal, state and local government web resources and services.